sat.trackr.live / text

‹ back to catalog

ZY-1 02E

NORAD 50465 · 2021-131A

PAYLOAD ACTIVE UNKNOWN

§ Identity

Operator
Country
PRC
Launch date
2021-12-26
Launch site
TAISC
Launch vehicle
Mass (kg)
RCS (m²)

External: N2YO · Heavens-Above · Gunter

§ Orbital elements

Epoch: 2026-09-20T05:29:02.961600Z

Period
100.32 min
Inclination
98.4362°
Eccentricity
0.0001560
Mean motion
14.35397206 rev/d
Perigee alt
772.6 km
Apogee alt
774.9 km
Semi-major
7,151.9 km
B*
2.8383e-5
RAAN
338.2650°
Arg perigee
131.4157°
Mean anomaly
228.7163°
Rev number
24,805

§ Raw data

ZY-1 02E1 50465U 21131A   26263.22850650  .00000039  00000+0  28383-4 0  99942 50465  98.4362 338.2650 0001560 131.4157 228.7163 14.35397206248053

JSON: /api/v1/satellites/50465 · /tle

For live sub-satellite position, see the globe view (requires WebGL).

§ Visibility from observer

Set your observer location to see the next 7 days of passes ≥ 10°. The values pass through the URL so the page stays shareable.

No JS? Fill the form by hand. The geolocation button needs JavaScript.

§ Radio — SatNOGS DB

ModeDescriptionDownlinkUplink
FM S-band telemetry 2.232 GHz

1 transmitter · refreshed weekly from db.satnogs.org